Meteo Giornale » Osservazioni meteo Germania » Hahn

ore: 21:20 - Osservazioni Meteo Hahn
Lat. 49° 57' N Lon. 7° 16' E Alt. 491 metri s.l.m.

sereno Europe/Berlin

15 °C

Sereno

Temp. 24 Ore

11 °C

18 °C

Sud-Est

7.4 Km/h

Dew point 9 °C

Umidità 67 %

Visibilità  10 Km

Il sole sorge alle ore 07:08

Il sole tramonta alle ore 19:42

Data e Ora Cielo e Fenomeni T °C DP °C Um. % Pres. hPa Vis. km Vento km/h
Oggi h: 21:20 sereno Sereno 15 9 67 1016 10 SE 7.4
Oggi h: 20:50 sereno Sereno 14 10 76 1016 10 N 5.5
Oggi h: 20:20 sereno Sereno 13 9 76 1016 10 N 5.5
Oggi h: 19:50 sereno Sereno 13 9 76 1016 10 N 5.5
Oggi h: 19:20 sereno Sereno 15 10 72 1016 10 N 1.8
Oggi h: 18:50 sereno Sereno 17 10 63 1016 10 N 1.8
Oggi h: 18:20 sereno Sereno 18 9 55 1016 10 N 1.8
Oggi h: 17:50 sereno Sereno 17 11 67 1016 10 N 5.5
Oggi h: 17:20 sereno Sereno 17 10 63 1016 10 N 3.7
Oggi h: 16:50 sereno Sereno 17 9 59 1016 10 N 3.7
Oggi h: 16:20 sereno Sereno 17 11 67 1017 10 N 3.7
Oggi h: 15:50 sereno Sereno 17 11 67 1017 10 NE 7.4
Oggi h: 15:20 poco_nuvoloso Poco Nuvoloso 17 10 63 1017 10 N/NE 7.4
Oggi h: 14:20 sereno Sereno 17 10 63 1017 10 N 3.7
Oggi h: 13:50 sereno Sereno 18 11 63 1017 10 N 5.5
Oggi h: 13:20 sereno Sereno 17 11 67 1017 10 N 5.5
Oggi h: 12:50 sereno Sereno 16 11 72 1017 10 N 3.7
Oggi h: 12:20 sereno Sereno 16 12 77 1018 10 N 5.5
Oggi h: 11:50 sereno Sereno 15 12 82 1018 10 N 3.7
Oggi h: 11:20 poco_nuvoloso Poco Nuvoloso 15 12 82 1018 10 N 5.5
Oggi h: 10:50 sereno Sereno 15 12 82 1018 10 N 5.5
Oggi h: 10:20 sereno Sereno 14 12 87 1018 10 N 5.5
Oggi h: 09:50 sereno Sereno 14 12 87 1018 10 N 5.5
Oggi h: 09:20 sereno Sereno 13 11 87 1018 10 O 7.4
Oggi h: 08:50 sereno Sereno 13 11 87 1018 10 N 5.5
Oggi h: 08:20 sereno Sereno 12 11 93 1018 10 O/SO 9.3
Oggi h: 07:50 sereno Sereno 12 11 93 1017 10 O/SO 7.4
Oggi h: 07:20 sereno Sereno 11 11 100 1017 10 O 9.3
Oggi h: 06:50 sereno Sereno 11 11 100 1017 10 N 5.5
Oggi h: 06:20 sereno Sereno 11 11 100 1017 10 N 3.7
Oggi h: 05:50 poco_nuvoloso Poco Nuvoloso 11 11 100 1018 8 N 5.5
Oggi h: 05:20 nuvoloso Nuvoloso 12 10 87 1018 8 N 5.5
Oggi h: 04:50 nuvoloso Nuvoloso 12 11 93 1018 8 O/SO 7.4
Oggi h: 04:20 nuvoloso Nuvoloso 12 11 93 1018 7 N 3.7
Oggi h: 03:50 nuvoloso Nuvoloso 12 12 100 1018 8 N 5.5
Oggi h: 03:20 nuvoloso Nuvoloso 12 12 100 1018 8 O/SO 7.4
Oggi h: 02:50 sereno Sereno 11 11 100 1019 10 O 7.4
Oggi h: 02:20 sereno Sereno 12 11 93 1019 10 O/SO 9.3
Oggi h: 01:50 sereno Sereno 12 11 93 1019 10 O/SO 7.4
Oggi h: 01:20 sereno Sereno 11 10 93 1019 10 N 5.5
Oggi h: 00:50 poco_nuvoloso Poco Nuvoloso 12 11 93 1019 10 O/SO 7.4
Oggi h: 00:20 sereno Sereno 12 11 93 1019 10 O 7.4
Ieri h: 23:50 sereno Sereno 12 11 93 1019 10 N 3.7
Ieri h: 23:20 sereno Sereno 11 11 100 1019 10 N 3.7
Ieri h: 22:50 sereno Sereno 11 11 100 1019 10 N 1.8